Regional Weather Roundup
Issued by NWS

Home | Current Version | Previous Version | Graphics & Text | Print | Product List | Glossary On
Versions: 1 2 3 4 5 6 7 8 9 10 11 12 13 14 15 16 17 18 19 20 21 22 23 24 25 26 27 28 29 30 31 32 33 34 35 36 37 38 39 40 41 42 43 44 45 46 47 48 49 50
000
ASUS43 KDTX 250201
RWRMI
MICHIGAN HOURLY REGIONAL WEATHER ROUNDUP
NATIONAL WEATHER SERVICE DETROIT/PONTIAC MI
1000 PM EDT THU APR 24 2014

NOTE: "FAIR" INDICATES FEW OR NO CLOUDS BELOW 12,000 FEET WITH NO
SIGNIFICANT WEATHER AND/OR OBSTRUCTION TO VISIBILITY.

MIZ047>049-052>055-059>063-066>070-074>076-081>083-250300-
SOUTHEAST LOWER MICHIGAN

CITY           SKY/WX    TMP DP  RH WIND       PRES   REMARKS
ADRIAN         CLOUDY    45  27  49 SE13      29.90F
ALMA           MOCLDY    49  19  30 E9        29.89S
ANN ARBOR      CLOUDY    47  19  33 E14G22    29.89F
BAD AXE        CLOUDY    42  18  38 E8G20     29.97S
CARO           CLOUDY    46  20  36 E9G17     29.95F
DETROIT CITY   CLOUDY    51  25  36 E12       29.95F
DETROIT        CLOUDY    48  21  34 E12G18    29.94F
FLINT          CLOUDY    50  20  30 SE12      29.92F
GROSSE ILE     CLOUDY    46  21  36 E9        29.93S
HILLSDALE      CLOUDY    44  25  46 SE13      29.86S
HOWELL         CLOUDY    47  16  28 E15G23    29.89S

CITY           SKY/WX    TMP DP  RH WIND       PRES   REMARKS
JACKSON        CLOUDY    45  20  36 SE18G24   29.86F
LAMBERTVILLE   CLOUDY    46  28  49 E7G17     29.90F
LANSING        CLOUDY    49  17  28 SE16G26   29.86F
LAPEER         FAIR      45  22  40 E8        29.95F
MASON          CLOUDY    47  18  30 E9G17     29.86S
MONROE         CLOUDY    46  28  49 E15G23    29.91F
MT. CLEMENS    CLOUDY    47  28  46 E12       29.94F
PONTIAC        CLOUDY    48  21  34 E13       29.91F
PORT HOPE        N/A     42  28  57 E18       29.96F
PORT HURON     CLOUDY    45  27  49 S3        29.98R
TRI CITIES     CLOUDY    48  24  39 E16       29.92F
TROY           CLOUDY    49  23  35 E13G18    29.94F
SAGINAW HB     CLOUDY    46  23  39 E14G22    29.91F
YPSILANTI      CLOUDY    50  21  32 E15G21    29.93F
$$
MIZ043>046-050>051-056>058-064>065-071>073-077>080-250300-
SOUTHWEST LOWER MICHIGAN

CITY           SKY/WX    TMP DP  RH WIND       PRES   REMARKS
BATTLE CREEK   CLOUDY    49  23  36 SE12G22   29.85R
BENTON HARBOR  CLOUDY    53  27  36 SE15      29.77R
BIG RAPIDS     CLOUDY    48  27  42 E10       29.85S
COLDWATER      CLOUDY    45  25  44 E15G24    29.83F
FREMONT        FAIR      51  17  26 SE14G23   29.83S
HOLLAND        MOCLDY    52  27  38 E10       29.83R
GRAND RAPIDS   CLOUDY    49  21  33 E14       29.85R
IONIA          FAIR      47  19  32 SE10      29.86S
KALAMAZOO      CLOUDY    50  25  37 SE15G24   29.83S
LUDINGTON      CLOUDY    55  22  28 SE14G24   29.80F
MARSHALL       CLOUDY    46  23  39 SE10G20   29.84S
MOUNT PLEASANT MOCLDY    50  25  37 E13G18    29.89S
MUSKEGON       CLOUDY    52  21  29 E14       29.82S
SOUTH HAVEN    MOCLDY    54  22  29 SE12      29.79R
$$
MIZ016>042-250300-
NORTHERN LOWER MICHIGAN

CITY           SKY/WX    TMP DP  RH WIND       PRES   REMARKS
ALPENA         CLOUDY    40  24  53 SE8       29.99F WCI  34
BEAVER ISLAND  CLOUDY    42  26  53 E16G22    29.93S
BELLAIRE       CLOUDY    47  15  27 E6        29.89S
CADILLAC       CLOUDY    44  22  42 E15G24    29.85R
CHARLEVOIX     CLOUDY    45  19  34 E13       29.92F
FRANKFORT      CLOUDY    50  25  37 SE13G20   29.82S
GAYLORD        CLOUDY    42  13  30 E9G22     29.91F
GRAYLING       CLOUDY    42  12  29 E13G20    29.91F
HARBOR SPRINGS CLOUDY    46  17  31 E10G17    29.91F
HOUGHTON LAKE  CLOUDY    42  17  36 E14       29.90F
MANISTEE       CLOUDY    52  23  32 SE10G23   29.81F
OSCODA         CLOUDY    42  20  42 E10       29.97F
PELLSTON       CLOUDY    46  15  28 E13G23    29.95F
ROGERS CITY    CLOUDY    42  24  47 SE7       29.99F
TRAVERSE CITY  CLOUDY    48  19  31 E15       29.85S
$$
MIZ007>008-015-250300-
EASTERN UPPER MICHIGAN

CITY           SKY/WX    TMP DP  RH WIND       PRES   REMARKS
KINROSS        CLOUDY    41  25  52 E5        30.00R
MACKINAC ISLAN CLOUDY    39  29  65 E12G20    29.98S WCI  32
NEWBERRY       LGT SNOW  32  32 100 E8        29.99R WCI  25
S. S. MARIE    CLOUDY    42  21  43 SE8       30.00R
MUNISING         N/A     39  34  82 SE8       29.94S WCI  33
$$
MIZ004>006-011>014-085-250300-
CENTRAL UPPER MICHIGAN

CITY           SKY/WX    TMP DP  RH WIND       PRES   REMARKS
MANISTIQUE     CLOUDY    38  33  80 E9G16     29.93F WCI  32
ESCANABA       CLOUDY    39  34  81 E8G22     29.88S WCI  34
MENOMINEE      CLOUDY    37  36  93 E14G21    29.83S WCI  29
SAWYER-GWINN   LGT SNOW  32  32 100 E8        29.89S WCI  25
$$
MIZ001>003-009>011-084-250300-
WESTERN UPPER MICHIGAN

CITY           SKY/WX    TMP DP  RH WIND       PRES   REMARKS
IRON MOUNTAIN  LGT RAIN  35  33  92 VRB7      29.82F WCI  29
HOUGHTON       SNOW      32  30  92 E20G29    29.86S VSB 1/2 WCI  20
COPPER HARBOR    N/A     34  32  92 S9G17     29.92F WCI  27
$$

ABBREVIATIONS USED IN REMARKS
   TC - TEMPERATURE IN CELSIUS
  WCI - WIND CHILL INDEX
   HX - HEAT INDEX
  VSB - VISIBILITY




USA.gov is the U.S. government's official web portal to all federal, state and local government web resources and services.